Weather History for KLBT - May, 2013

Change the Weather History Date:

Tuesday, May 21, 2013

  Actual Average Record
Temperature  
Mean Temperature 77 °F 71 °F  
Max Temperature 85 °F 83 °F 94 °F (2004)
Min Temperature 68 °F 59 °F 42 °F (2002)
Degree Days  
Heating Degree Days 0 0  
Month to date heating degree days 32 30  
Since 1 July heating degree days 2796 2759  
Cooling Degree Days 12 7  
Month to date cooling degree days 87 100  
Year to date cooling degree days 131 168  
Growing Degree Days 26 (Base 50)    
Moisture  
Dew Point 70 °F    
Average Humidity 83    
Maximum Humidity 100    
Minimum Humidity 65    
Precipitation  
Precipitation 0.17 in 0.11 in 0.30 in (2015)
Month to date precipitation 2.43 1.84  
Year to date precipitation 13.79 13.86  
Sea Level Pressure  
Sea Level Pressure 30.03 in    
Wind  
Wind Speed 4 mph (South)    
Max Wind Speed 10 mph    
Max Gust Speed 15 mph    
Visibility 7 miles    
Events Rain    
T = Trace of Precipitation, MM = Missing Value Source: NWS Daily Summary

Daily Weather History Graph

Daily Weather History Graph

Search for Another Location

Airport or City:

Trip Planner

Search our weather history database for the weather conditions in past years. The results will help you decide how hot, cold, wet, or windy it might be!

Date:

Astronomy

May. 21, 2013 Rise Set
Actual Time 6:09 AM EDT 8:16 PM EDT
Civil Twilight 5:41 AM EDT 8:45 PM EDT
Nautical Twilight 5:06 AM EDT 9:19 PM EDT
Astronomical Twilight 4:29 AM EDT 9:57 PM EDT
Moon 4:36 PM EDT (5/21) 3:26 AM EDT (5/21)
Length of Visible Light 15h 04m
Length of Day
14h 07m
Waxing Gibbous, 84% of the Moon is Illuminated
May 21
Waxing Gibbous
May 25
Full
May 31
Last Quarter
Jun 8
New
Jun 16
First Quarter

Hourly Weather History & Observations

Time (EDT) Temp. Heat Index Dew Point Humidity Pressure Visibility Wind Dir Wind Speed Gust Speed Precip Events Conditions
12:54 AM 71.1 °F - 69.1 °F 93% 30.04 in 7.0 mi SSE 5.8 mph - N/A   Overcast
1:41 AM 71.6 °F - 69.8 °F 94% 30.02 in 7.0 mi SSW 4.6 mph - N/A   Overcast
1:54 AM 71.1 °F - 69.1 °F 93% 30.02 in 7.0 mi Calm Calm - N/A   Overcast
2:54 AM 71.1 °F - 69.1 °F 93% 30.02 in 8.0 mi SSW 4.6 mph - N/A   Overcast
3:10 AM 71.6 °F - 69.8 °F 94% 30.02 in 7.0 mi SSW 3.5 mph - N/A   Overcast
3:54 AM 71.1 °F - 69.1 °F 93% 30.02 in 7.0 mi Calm Calm - N/A   Overcast
4:17 AM 71.6 °F - 69.8 °F 94% 30.02 in 6.0 mi Calm Calm - N/A   Overcast
4:42 AM 71.6 °F - 69.8 °F 94% 30.03 in 6.0 mi Calm Calm - N/A   Overcast
4:54 AM 71.1 °F - 69.1 °F 93% 30.03 in 5.0 mi SSW 3.5 mph - N/A   Overcast
5:05 AM 69.8 °F - 69.8 °F 100% 30.03 in 5.0 mi South 3.5 mph - N/A   Overcast
5:21 AM 69.8 °F - 69.8 °F 100% 30.04 in 5.0 mi South 3.5 mph - N/A   Overcast
5:51 AM 69.8 °F - 69.8 °F 100% 30.04 in 5.0 mi South 3.5 mph - N/A   Overcast
5:54 AM 70.0 °F - 69.1 °F 97% 30.04 in 5.0 mi South 3.5 mph - N/A   Overcast
6:54 AM 71.1 °F - 69.1 °F 93% 30.05 in 5.0 mi Calm Calm - N/A   Overcast
7:54 AM 73.0 °F - 68.0 °F 84% 30.06 in 10.0 mi Variable 5.8 mph - N/A   Partly Cloudy
8:18 AM 73.4 °F - 68.0 °F 83% 30.07 in 10.0 mi WSW 6.9 mph - N/A   Mostly Cloudy
8:54 AM 73.0 °F - 68.0 °F 84% 30.07 in 10.0 mi SSW 4.6 mph - N/A   Overcast
9:03 AM 73.4 °F - 68.0 °F 83% 30.07 in 10.0 mi SW 5.8 mph - N/A   Overcast
9:47 AM 75.2 °F - 68.0 °F 78% 30.05 in 10.0 mi South 6.9 mph - N/A   Scattered Clouds
9:54 AM 75.0 °F - 69.1 °F 82% 30.06 in 10.0 mi Variable 4.6 mph - N/A   Scattered Clouds
10:02 AM 75.2 °F - 69.8 °F 83% 30.06 in 10.0 mi Variable 3.5 mph - N/A   Mostly Cloudy
10:54 AM 75.9 °F - 69.1 °F 79% 30.07 in 10.0 mi WSW 5.8 mph - N/A   Overcast
11:47 AM 80.6 °F 83.9 °F 69.8 °F 70% 30.07 in 10.0 mi North - - N/A   Partly Cloudy
11:54 AM 79.0 °F - 69.1 °F 72% 30.06 in 10.0 mi Variable 4.6 mph - N/A   Scattered Clouds
12:54 PM 82.0 °F 85.9 °F 70.0 °F 67% 30.04 in 10.0 mi SW 8.1 mph - N/A   Mostly Cloudy
1:54 PM 82.9 °F 86.5 °F 69.1 °F 63% 30.02 in 10.0 mi SSW 9.2 mph - N/A   Overcast
2:39 PM 75.2 °F - 71.6 °F 89% 30.02 in 3.0 mi SSE 8.1 mph - 0.02 in Rain Light Rain
2:43 PM 75.2 °F - 71.6 °F 89% 30.02 in 1.8 mi Variable 5.8 mph - 0.03 in Rain Rain
2:54 PM 73.9 °F - 71.1 °F 91% 30.03 in 3.0 mi SSE 6.9 mph - 0.04 in Rain Light Rain
3:07 PM 73.4 °F - 71.6 °F 94% 30.03 in 2.0 mi SE 6.9 mph - 0.05 in Rain Light Rain
3:09 PM 73.4 °F - 71.6 °F 94% 30.03 in 1.5 mi SE 5.8 mph - 0.07 in Rain Heavy Rain
3:27 PM 73.4 °F - 71.6 °F 94% 30.02 in 2.0 mi South 4.6 mph - 0.13 in Rain Light Rain
3:36 PM 73.4 °F - 71.6 °F 94% 30.01 in 4.0 mi South 6.9 mph - 0.13 in Rain Light Rain
3:54 PM 73.0 °F - 71.1 °F 93% 30.01 in 7.0 mi SSW 8.1 mph - 0.13 in   Overcast
4:54 PM 75.0 °F - 70.0 °F 84% 30.01 in 10.0 mi Variable 3.5 mph - N/A   Partly Cloudy
5:54 PM 75.9 °F - 71.1 °F 85% 30.00 in 10.0 mi SSE 4.6 mph - N/A   Partly Cloudy
6:54 PM 75.9 °F - 70.0 °F 82% 29.99 in 10.0 mi South 4.6 mph - N/A   Clear
7:54 PM 75.0 °F - 70.0 °F 84% 29.98 in 10.0 mi Calm Calm - N/A   Clear
8:54 PM 72.0 °F - 69.1 °F 91% 29.98 in 10.0 mi South 3.5 mph - N/A   Partly Cloudy
9:54 PM 72.0 °F - 68.0 °F 87% 29.99 in 10.0 mi South 5.8 mph - N/A   Clear
10:54 PM 70.0 °F - 68.0 °F 93% 30.01 in 9.0 mi Calm Calm - N/A   Clear
11:54 PM 69.1 °F - 68.0 °F 96% 30.02 in 9.0 mi South 3.5 mph - N/A   Clear